Simultaneous Nadir Overpasses (SNOs) Predictions

Prediction of SNOs between GOES-17 and AQUA Satellite Orbit:

Table of predicted SNOs for the next 14.0 days since TLE Epoch: 10/10/2025
Index Date Time (GOES-17) GOES-17 Lat,Lon AQUA Lat,Lon Distance(km) Time Diff (sec)
1 10/11/2025 20:42:45 0.15, -89.50 0.68, -87.03 281.11 80
2 10/12/2025 09:04:25 -0.12, -89.49 0.31, -91.62 241.67 80
3 10/14/2025 08:40:54 -0.15, -89.49 -0.76, -86.51 338.38 80
4 10/14/2025 21:02:44 0.12, -89.49 -0.22, -91.14 187.18 80
5 10/16/2025 20:39:13 0.14, -89.50 0.90, -86.04 394.76 80
6 10/17/2025 09:00:53 -0.12, -89.51 0.13, -90.62 126.81 80
7 10/19/2025 08:37:21 -0.13, -89.52 -0.98, -85.51 455.90 80
8 10/19/2025 20:59:10 0.11, -89.52 -0.03, -90.13 69.39 80
9 10/22/2025 08:57:17 -0.09, -89.55 -0.06, -89.60 6.34 80
10 10/24/2025 20:52:52 0.08, -89.57 0.18, -89.11 52.51 80
